Stations météo

réclame
Mon MeteoGroup
Trieste, Italie (16110): Température de l'air & dewpoint: 18.10.2018 07:00:00 - 24.10.2018 07:00:00 (CEST)Trieste, Italie (16110): Vitesse du vent: 18.10.2018 07:00:00 - 24.10.2018 07:00:00 (CEST)Trieste, Italie (16110): Direction du vent: 18.10.2018 07:00:00 - 24.10.2018 07:00:00 (CEST)Trieste, Italie (16110): reduced air pressure: 18.10.2018 07:00:00 - 24.10.2018 07:00:00 (CEST)Trieste, Italie (16110): visibility: 18.10.2018 07:00:00 - 24.10.2018 07:00:00 (CEST)Trieste, Italie (16110): Ensoleillement: 18.10.2018 07:00:00 - 24.10.2018 07:00:00 (CEST)
Date & Time tt [°C] td [°C] ff [km/h] ff [knt] dd ppp [hPa] vv [km] sd [min]
24.10.2018 07:00:00 15,0 9,6 5 3 ENE 1011,1 20 -
24.10.2018 06:00:00 15,0 9,4 8 4 ENE 1011,1 20 -
24.10.2018 05:00:00 14,6 8,8 5 3 ENE 1012,1 20 -
24.10.2018 04:00:00 14,6 11,2 0 0 N 1013,1 20 -
24.10.2018 03:00:00 13,4 9,3 0 0 N 1013,6 20 -
24.10.2018 02:00:00 14,0 9,8 0 0 N 1014,5 20 -
24.10.2018 01:00:00 14,8 9,2 2 1 NE 1015,7 20 -
24.10.2018 00:00:00 14,6 9,0 0 0 N 1015,9 20 -
23.10.2018 23:00:00 14,4 8,4 2 1 NE 1016,8 20 -
23.10.2018 22:00:00 14,8 7,1 4 2 NE 1017,1 20 -
23.10.2018 21:00:00 16,6 7,3 0 0 N 1017,8 20 -
23.10.2018 20:00:00 16,8 6,9 4 2 NE 1018,4 20 -
23.10.2018 19:00:00 18,0 8,0 5 3 NW 1018,7 20 -
23.10.2018 18:00:00 18,0 10,1 2 1 NW 1018,8 20 12
23.10.2018 17:00:00 18,4 11,7 11 6 W 1019,1 20 12
23.10.2018 16:00:00 19,0 11,1 8 4 WNW 1020,0 20 54
23.10.2018 15:00:00 19,0 10,5 8 4 WNW 1020,3 20 60
23.10.2018 14:00:00 18,0 10,4 4 2 NW 1021,1 20 60
23.10.2018 13:00:00 18,0 10,1 9 5 WNW 1021,9 20 60
23.10.2018 12:00:00 19,0 9,2 2 1 NW 1023,2 20 60
23.10.2018 11:00:00 18,8 8,2 2 1 S 1023,2 20 60
23.10.2018 10:00:00 17,0 6,8 2 1 WNW 1023,3 20 48
23.10.2018 09:00:00 14,2 6,3 2 1 SE 1023,3 20 -
23.10.2018 08:00:00 14,0 6,6 9 5 NNE 1023,1 30 -
23.10.2018 07:00:00 12,8 6,6 2 1 W 1022,7 30 -
23.10.2018 06:00:00 13,4 6,3 2 1 NNE 1023,3 30 -
23.10.2018 05:00:00 14,4 6,5 11 6 ENE 1022,7 20 -
23.10.2018 04:00:00 14,0 6,6 9 5 SSW 1023,2 30 -
23.10.2018 03:00:00 13,8 6,4 9 5 ESE 1023,5 30 -
23.10.2018 02:00:00 14,2 7,0 13 7 S 1022,9 30 -
23.10.2018 01:00:00 15,0 7,1 18 10 ENE 1023,4 30 -
23.10.2018 00:00:00 14,8 7,4 13 7 S 1023,2 30 -
22.10.2018 23:00:00 15,2 7,5 31 17 NE 1022,5 30 -
22.10.2018 22:00:00 14,6 7,2 21 11 NNE 1022,5 30 -
22.10.2018 21:00:00 14,6 6,9 5 3 SW 1022,2 30 -
22.10.2018 20:00:00 14,6 7,2 13 7 E 1021,7 20 -
22.10.2018 19:00:00 15,0 7,1 29 16 ENE 1020,3 20 -
22.10.2018 18:00:00 15,4 7,2 34 18 NE 1019,9 20 -
22.10.2018 17:00:00 16,4 7,4 37 20 NE 1018,5 20 60
22.10.2018 16:00:00 - - - - - - - -
22.10.2018 15:00:00 16,6 7,3 37 20 NNE 1018,9 20 54
22.10.2018 14:00:00 17,4 8,3 11 6 W 1019,5 20 60
22.10.2018 13:00:00 15,6 7,1 34 18 NE 1020,7 20 60
22.10.2018 12:00:00 15,4 7,2 39 21 NE 1020,7 20 60
22.10.2018 11:00:00 14,6 6,2 21 11 NE 1021,9 20 60
22.10.2018 10:00:00 14,4 6,0 15 8 E 1022,0 20 60
22.10.2018 09:00:00 12,6 4,6 16 9 ENE 1021,3 20 6
22.10.2018 08:00:00 12,4 4,4 26 14 NE 1021,0 20 -
22.10.2018 07:00:00 12,2 4,7 4 2 ENE 1021,4 20 -
22.10.2018 06:00:00 12,2 4,9 4 2 W 1021,5 20 -
22.10.2018 05:00:00 11,4 3,9 2 1 NNE 1021,7 20 -
22.10.2018 04:00:00 11,0 3,5 4 2 WNW 1022,0 20 -
22.10.2018 03:00:00 11,6 3,9 4 2 WNW 1022,8 20 -
22.10.2018 02:00:00 11,6 3,9 5 3 SSW 1023,0 20 -
22.10.2018 01:00:00 11,8 4,1 2 1 NNE 1023,2 20 -
22.10.2018 00:00:00 12,0 4,2 0 0 N 1023,1 20 -
21.10.2018 23:00:00 12,2 3,9 18 10 ENE 1022,9 20 -
21.10.2018 22:00:00 11,8 4,3 5 3 NE 1022,6 20 -
21.10.2018 21:00:00 11,8 4,8 15 8 NE 1022,4 20 -
21.10.2018 20:00:00 12,0 4,5 22 12 NE 1022,4 30 -
21.10.2018 19:00:00 13,0 4,7 18 10 ENE 1022,1 30 -
21.10.2018 18:00:00 13,4 4,6 18 10 W 1021,1 30 48
21.10.2018 17:00:00 14,0 4,3 22 12 ESE 1020,7 30 60
21.10.2018 16:00:00 13,4 4,8 29 16 NE 1021,4 25 24
21.10.2018 15:00:00 12,4 4,9 13 7 E 1021,4 25 -
21.10.2018 14:00:00 12,2 3,9 35 19 NE 1021,6 20 42
21.10.2018 13:00:00 15,0 6,8 31 17 NNE 1020,5 30 12
21.10.2018 12:00:00 16,4 8,6 21 11 NE 1020,3 20 18
21.10.2018 11:00:00 16,2 9,2 28 15 NE 1020,3 15 0
21.10.2018 10:00:00 16,8 9,7 18 10 NNE 1020,4 10 0
21.10.2018 09:00:00 17,0 9,7 18 10 NE 1020,2 10 0
21.10.2018 08:00:00 17,2 9,9 15 8 NE 1020,3 12 0
21.10.2018 07:00:00 16,8 9,5 16 9 NE 1020,4 20 -
21.10.2018 06:00:00 16,4 9,4 4 2 NNE 1020,6 15 -
21.10.2018 05:00:00 16,6 9,3 2 1 ENE 1020,9 15 -
21.10.2018 04:00:00 17,0 8,9 8 4 ESE 1020,9 15 -
21.10.2018 03:00:00 16,4 9,1 2 1 NNW 1021,7 18 -
21.10.2018 02:00:00 16,4 9,1 2 1 NE 1022,2 20 -
21.10.2018 01:00:00 17,0 9,2 2 1 NE 1022,4 20 -
21.10.2018 00:00:00 17,0 9,2 16 9 ENE 1022,6 20 -
20.10.2018 23:00:00 17,8 9,4 16 9 NE 1022,6 20 -
20.10.2018 22:00:00 18,4 9,7 13 7 NE 1022,6 20 -
20.10.2018 21:00:00 18,6 9,4 11 6 NE 1022,3 20 -
20.10.2018 20:00:00 19,2 7,9 11 6 NE 1021,7 20 -
20.10.2018 19:00:00 20,4 6,4 8 4 NE 1021,4 20 -
20.10.2018 18:00:00 21,6 6,7 4 2 ENE 1021,4 20 48
20.10.2018 17:00:00 23,6 7,7 5 3 E 1021,4 20 60
20.10.2018 16:00:00 23,8 8,2 8 4 NE 1021,6 20 60
20.10.2018 15:00:00 24,0 8,4 8 4 ENE 1022,1 20 60
20.10.2018 14:00:00 23,0 9,4 8 4 NE 1022,8 20 60
20.10.2018 13:00:00 22,2 10,0 11 6 NE 1023,2 20 60
20.10.2018 12:00:00 21,2 10,7 13 7 ENE 1023,2 20 60
20.10.2018 11:00:00 20,0 11,2 8 4 NE 1023,1 20 60
20.10.2018 10:00:00 18,4 10,8 18 10 ENE 1022,4 20 60
20.10.2018 09:00:00 17,2 10,1 9 5 E 1022,3 20 6
20.10.2018 08:00:00 17,4 10,3 21 11 NE 1021,4 20 -
20.10.2018 07:00:00 17,8 9,9 22 12 NE 1020,8 20 -
20.10.2018 06:00:00 18,0 9,9 22 12 NE 1020,2 20 -
20.10.2018 05:00:00 18,0 10,1 22 12 NE 1020,0 20 -
20.10.2018 04:00:00 18,4 10,5 21 11 NE 1019,9 20 -
20.10.2018 03:00:00 19,0 11,1 24 13 NNE 1019,9 20 -
20.10.2018 02:00:00 19,0 11,1 22 12 NE 1019,8 20 -
20.10.2018 01:00:00 19,0 11,1 22 12 NE 1019,7 20 -
20.10.2018 00:00:00 19,0 10,3 22 12 NNE 1019,5 20 -
19.10.2018 23:00:00 19,4 10,1 22 12 NNE 1019,4 20 -
19.10.2018 22:00:00 20,0 10,7 24 13 NNE 1019,3 20 -
19.10.2018 21:00:00 20,2 10,0 22 12 NE 1019,0 20 -
19.10.2018 20:00:00 20,4 10,5 13 7 NNE 1018,4 20 -
19.10.2018 19:00:00 21,4 10,2 16 9 NNE 1017,9 20 -
19.10.2018 18:00:00 22,4 8,5 16 9 NE 1017,5 20 42
19.10.2018 17:00:00 23,8 8,2 15 8 NE 1017,1 20 60
19.10.2018 16:00:00 24,2 8,6 13 7 NE 1017,1 20 60
19.10.2018 15:00:00 24,4 9,6 11 6 NE 1017,1 20 60
19.10.2018 14:00:00 24,0 9,6 11 6 NE 1017,2 20 60
19.10.2018 13:00:00 23,2 10,6 15 8 NE 1017,5 20 60
19.10.2018 12:00:00 22,8 10,2 18 10 NE 1017,6 20 60
19.10.2018 11:00:00 22,0 10,2 21 11 NE 1017,4 20 60
19.10.2018 10:00:00 21,0 10,2 24 13 NE 1017,3 20 42
19.10.2018 09:00:00 19,0 9,8 18 10 NE 1017,1 10 0
19.10.2018 08:00:00 18,4 10,0 18 10 NE 1016,4 20 -
19.10.2018 07:00:00 18,6 9,9 18 10 NE 1016,0 20 -
19.10.2018 06:00:00 19,0 9,5 21 11 NE 1015,7 20 -
19.10.2018 05:00:00 19,4 9,6 21 11 NE 1015,5 20 -
19.10.2018 04:00:00 19,4 9,6 21 11 NE 1015,5 20 -
19.10.2018 03:00:00 20,0 9,9 18 10 NE 1015,5 20 -
19.10.2018 02:00:00 20,4 9,7 18 10 NE 1016,0 20 -
19.10.2018 01:00:00 20,4 12,1 18 10 NE 1016,2 20 -
19.10.2018 00:00:00 20,8 10,0 16 9 NE 1015,9 20 -
18.10.2018 23:00:00 21,2 10,7 18 10 NE 1015,8 20 -
18.10.2018 22:00:00 20,2 11,7 9 5 ENE 1015,7 20 -
18.10.2018 21:00:00 20,2 12,7 5 3 E 1015,5 20 -
18.10.2018 20:00:00 20,0 13,7 2 1 WSW 1015,4 15 -
18.10.2018 19:00:00 19,0 13,8 0 0 N 1015,0 15 -
18.10.2018 18:00:00 20,8 15,1 0 0 N 1014,8 10 30
18.10.2018 17:00:00 22,4 16,2 0 0 N 1014,7 10 60
18.10.2018 16:00:00 22,0 18,4 0 0 N 1014,9 15 54
18.10.2018 15:00:00 22,0 17,4 0 0 N 1014,9 15 54
18.10.2018 14:00:00 22,2 16,5 2 1 WNW 1015,4 15 24
18.10.2018 13:00:00 24,4 11,7 4 2 SSE 1015,7 15 48
18.10.2018 12:00:00 24,0 12,0 4 2 ENE 1016,0 15 30
18.10.2018 11:00:00 21,0 13,0 13 7 NE 1016,2 10 0
18.10.2018 10:00:00 20,0 12,7 13 7 NE 1015,9 10 0
18.10.2018 09:00:00 20,0 12,7 16 9 NE 1015,5 10 0
18.10.2018 08:00:00 19,2 12,5 18 10 NE 1015,0 15 -
18.10.2018 07:00:00 19,2 12,5 15 8 NE 1014,5 20 -

tt = Température de l'air
td = dewpoint
ff = Vitesse du vent
dd = Direction du vent
ppp = reduced air pressure
vv = visibility
sd = Ensoleillement

stations d'obs. à proximité